TimeGST,TemperatureF,Dew PointF,Humidity,Sea Level PressureIn,VisibilityMPH,Wind Direction,Wind SpeedMPH,Gust SpeedMPH,PrecipitationIn,Events,Conditions,WindDirDegrees,DateUTC
12:00 AM,80.6,57.2,45,29.92,-9999.0,WNW,11.5,-,N/A,,Clear,290,2013-04-25 20:00:00
1:00 AM,79,59,40,29.92,6,WNW,12.7,,,,Mostly Cloudy,290,2013-04-25 21:00:00
1:00 AM,78.8,59.0,51,29.92,-9999.0,WNW,13.8,-,N/A,,Clear,290,2013-04-25 21:00:00
2:00 AM,78.8,60.8,54,29.86,-9999.0,NW,11.5,-,N/A,,Clear,320,2013-04-25 22:00:00
3:00 AM,78.8,60.8,54,29.86,-9999.0,NW,5.8,-,N/A,,Clear,310,2013-04-25 23:00:00
4:00 AM,78,64,52,29.88,6,North,3.5,,,Rain,Light Rain,350,2013-04-26 00:00:00
4:00 AM,77.0,64.4,65,29.86,-9999.0,Variable,3.5,-,N/A,,Clear,0,2013-04-26 00:00:00
5:00 AM,77.0,60.8,57,29.86,-9999.0,NNW,4.6,-,N/A,,Clear,340,2013-04-26 01:00:00
6:00 AM,77.0,64.4,65,29.86,-9999.0,West,5.8,-,N/A,,Clear,270,2013-04-26 02:00:00
7:00 AM,78,64,53,29.91,6,WSW,4.6,,,,Mostly Cloudy,240,2013-04-26 03:00:00
7:00 AM,78.8,64.4,61,29.89,-9999.0,WSW,4.6,-,N/A,,Clear,240,2013-04-26 03:00:00
8:00 AM,78.8,64.4,61,29.92,-9999.0,SSW,8.1,-,N/A,,Clear,200,2013-04-26 04:00:00
9:00 AM,80.6,62.6,54,29.92,-9999.0,Variable,5.8,-,N/A,,Clear,0,2013-04-26 05:00:00
10:00 AM,83,64,42,29.96,6,West,6.9,,,,Scattered Clouds,280,2013-04-26 06:00:00
10:00 AM,82.4,64.4,54,29.95,-9999.0,West,6.9,-,N/A,,Clear,280,2013-04-26 06:00:00
11:00 AM,84.2,62.6,48,29.95,-9999.0,Variable,10.4,-,N/A,,Clear,0,2013-04-26 07:00:00
12:00 PM,82.4,62.6,51,29.95,-9999.0,West,12.7,-,N/A,,Clear,270,2013-04-26 08:00:00
1:00 PM,82,60,37,29.96,6,West,9.2,,,,Mostly Cloudy,260,2013-04-26 09:00:00
1:00 PM,82.4,60.8,48,29.95,-9999.0,West,9.2,-,N/A,,Clear,260,2013-04-26 09:00:00
2:00 PM,80.6,62.6,54,29.95,-9999.0,West,13.8,-,N/A,,Clear,260,2013-04-26 10:00:00
3:00 PM,80.6,60.8,51,29.95,-9999.0,West,13.8,-,N/A,,Clear,260,2013-04-26 11:00:00
4:00 PM,81,59,36,29.92,6,WSW,10.4,,,,Mostly Cloudy,250,2013-04-26 12:00:00
4:00 PM,80.6,59.0,48,29.92,-9999.0,WSW,10.4,-,N/A,,Clear,250,2013-04-26 12:00:00
5:00 PM,80.6,57.2,45,29.92,-9999.0,West,11.5,-,N/A,,Clear,270,2013-04-26 13:00:00
6:00 PM,80.6,60.8,51,29.92,-9999.0,West,13.8,-,N/A,,Clear,270,2013-04-26 14:00:00
7:00 PM,80,58,37,29.93,6,SW,8.1,,,,Mostly Cloudy,230,2013-04-26 15:00:00
7:00 PM,80.6,59.0,48,29.92,-9999.0,SW,8.1,-,N/A,,Clear,230,2013-04-26 15:00:00
8:00 PM,78.8,55.4,44,29.92,-9999.0,West,4.6,-,N/A,,Clear,280,2013-04-26 16:00:00
9:00 PM,78.8,60.8,54,29.92,-9999.0,NW,6.9,-,N/A,,Clear,310,2013-04-26 17:00:00
10:00 PM,79,60,43,29.95,6,,3.5,,,,Mostly Cloudy,,2013-04-26 18:00:00
11:00 PM,78.8,57.2,47,29.95,-9999.0,South,6.9,-,N/A,,Clear,170,2013-04-26 19:00:00